User: anonymous
Location: Huntington Beach
(33.6600°N, 117.9980°W)
Time: 01:35:57
(UTC-07:00)
Language:

SL-16 R/B - Orbit

View from above orbital plane
View from above orbital plane
View from above satellite
View from above satellite

Ground track
Ground track

The orbit data is extracted from the following two-line orbital elements,

1 28353U 04021B   14213.12274203 -.00000274  00000-0 -11902-3 0  8080
2 28353 071.0012 122.5617 0005948 332.3453 126.8739 14.14082089523572
Epoch (UTC): 01 August 2014 02:56:44
Eccentricity: 0.0005948
inclination: 71.0012°
perigee height: 841 km
apogee height: 850 km
right ascension of ascending node: 122.5617°
argument of perigee: 332.3453°
revolutions per day: 14.14082089
mean anomaly at epoch: 126.8739°
orbit number at epoch: 52357

The dashed part of the orbit path shows where the satellite is in the earth's shadow,  

DLR